CW4480 Weather Reports


Display with metric or nautical units.
time (UTC)temp
F
wind
direction
speed
MPH
gust
MPH
rain 1hr
in
rain 24hr
in
rain mn
in
humidity
%
barometer
mb
20260906160035 87 331 2.0 5.0 0.00 0.20 0.00 67 1013.2
20260906153029 85 338 1.0 3.0 0.00 0.20 0.00 67 1012.9
20260906150043 84 335 0.0 1.0 0.00 0.20 0.00 68 1013.1
20260906143100 83 360 0.0 2.0 0.00 0.20 0.00 68 1012.8
20260906140053 81 360 1.0 2.0 0.00 0.20 0.00 72 1012.7
20260906133040 78 360 0.0 0.0 0.00 0.20 0.00 80 1012.8
20260906130053 75 360 0.0 1.0 0.00 0.20 0.00 89 1012.8
20260906123045 74 360 0.0 1.0 0.00 0.20 0.00 93 1012.7
20260906120039 74 360 1.0 3.0 0.00 0.20 0.00 94 1012.3
20260906113052 75 360 0.0 1.0 0.00 0.20 0.00 93 1011.9
20260906110047 75 360 0.0 0.0 0.00 0.20 0.00 91 1011.8
20260906103041 76 360 0.0 1.0 0.00 0.20 0.00 92 1011.6
20260906100029 76 360 0.0 2.0 0.00 0.20 0.00 96 1011.2
20260906093045 76 360 0.0 2.0 0.00 0.20 0.00 100 1011.1
20260906090103 75 360 0.0 1.0 0.00 0.20 0.00 100 1011.0
20260906083036 74 360 0.0 1.0 0.00 0.20 0.00 100 1010.5
20260906080050 74 360 0.0 0.0 0.00 0.20 0.00 100 1010.5
20260906073041 74 360 0.0 0.0 0.00 0.20 0.00 100 1010.9
20260906070035 74 360 0.0 0.0 0.00 0.20 0.00 99 1010.8
20260906063029 75 360 0.0 0.0 0.00 0.20 0.00 99 1011.0
20260906060039 75 360 0.0 0.0 0.00 0.20 0.00 98 1011.0
20260906053052 75 360 0.0 0.0 0.00 0.20 0.00 97 1010.9
20260906050043 75 360 0.0 0.0 0.00 0.20 0.20 96 1011.1
20260906043036 76 360 0.0 0.0 0.00 0.20 0.20 95 1010.7
20260906040030 76 360 0.0 0.0 0.00 0.20 0.20 94 1010.5
20260906033045 76 360 0.0 0.0 0.00 0.20 0.20 92 1010.5
20260906030057 77 360 0.0 0.0 0.00 0.20 0.20 92 1010.1
20260906023028 78 360 0.0 0.0 0.00 0.20 0.20 91 1009.7
20260906020041 79 360 0.0 0.0 0.00 0.20 0.20 89 1009.1
20260906013034 80 360 0.0 0.0 0.00 0.20 0.20 87 1009.0
20260906010046 81 360 0.0 0.0 0.00 0.20 0.20 82 1008.7
20260906003105 83 360 0.0 0.0 0.00 0.20 0.20 76 1008.5
20260906000037 86 360 0.0 0.0 0.00 0.20 0.20 73 1008.5
20260905233050 88 360 0.0 3.0 0.00 0.20 0.20 71 1008.5
20260905230041 88 360 3.0 4.0 0.00 0.20 0.20 72 1008.8
20260905223030 86 360 0.0 0.0 0.08 0.20 0.20 75 1008.9
20260905220042 82 360 2.0 9.0 0.10 0.20 0.20 61 1008.9
20260905213036 84 165 2.0 13.0 0.12 0.12 0.12 63 1008.5
20260905210049 85 94 3.0 13.0 0.10 0.10 0.10 63 1009.0
20260905203040 104 181 4.0 7.0 0.00 0.00 0.00 29 1008.9
20260905200033 103 305 4.0 9.0 0.00 0.00 0.00 29 1009.1
20260905193030 101 292 3.0 6.0 0.00 0.00 0.00 30 1009.6
20260905190044 100 316 3.0 10.0 0.00 0.00 0.00 34 1009.9
20260905183035 100 315 1.0 6.0 0.00 0.00 0.00 36 1010.1
20260905180030 98 179 1.0 6.0 0.00 0.00 0.00 40 1010.5
20260905173043 96 175 2.0 4.0 0.00 0.00 0.00 44 1010.8
20260905170035 93 175 1.0 3.0 0.00 0.00 0.00 48 1011.1
20260905163049 91 175 1.0 4.0 0.00 0.00 0.00 54 1011.5